Regional Weather Roundup
Issued by NWS

Home | Current Version | Previous Version | Text Only | Print | Product List | Glossary Off
Versions: 1 2 3 4 5 6 7 8 9 10 11 12 13 14 15 16 17 18 19 20 21 22 23 24 25 26 27 28 29 30 31 32 33 34 35 36 37 38 39 40 41 42 43 44 45 46 47 48 49 50

000
ASUS43 KLOT 262003
RWRIL

ILLINOIS REGIONAL WEATHER ROUNDUP
NATIONAL WEATHER SERVICE CHICAGO/ROMEOVILLE IL
300 PM CDT THU MAY 26 2016

NOTE: "FAIR" INDICATES FEW OR NO CLOUDS BELOW 12,000 FEET WITH NO
SIGNIFICANT WEATHER AND/OR OBSTRUCTIONS TO VISIBILITY.

* THESE STATIONS ARE NOT UNDER NWS QUALITY CONTROL. THEY ALSO MAY NOT
  REPORT WEATHER SUCH AS PRECIPITATION OR FOG.

ILZ001-002-007-009-015-016-024-262100-
NORTHWEST ILLINOIS

CITY           SKY/WX    TMP DP  RH WIND       PRES   REMARKS
MOLINE         FAIR      86  64  47 W9        29.84F HX  87
STERLING*      FAIR      85  66  53 W12G17    29.87F HX  87
$$

ILZ003-004-008-010-011-017-018-262100-
NORTH CENTRAL ILLINOIS

CITY           SKY/WX    TMP DP  RH WIND       PRES   REMARKS
ROCKFORD       PTSUNNY   82  64  54 SW8       29.89F HX  83
FREEPORT*      FAIR      81  62  52 W7        29.89S HX  82
ROCHELLE*      FAIR      81  67  63 SW14      29.88F HX  83
$$

ILZ005-006-012>014-019>023-262100-
NORTHEAST ILLINOIS

CITY           SKY/WX    TMP DP  RH WIND       PRES   REMARKS
CHICAGO-OHARE  PTSUNNY   80  63  55 SW13G22   29.87F HX  81
CHICAGO-MIDWAY PTSUNNY   82  62  50 SW15      29.87F HX  83
AURORA         FAIR      82  64  54 SW7       29.88F HX  83
LANSING*       FAIR      80  62  54 SW12      29.90S HX  81
WAUKEGAN       FAIR      82  62  50 SW16      29.86S HX  83
DUPAGE AIRPORT FAIR      82  62  50 SW14      29.87F HX  83
WHEELING       FAIR      81  60  48 SW14G22   29.88S HX  82
NORTHERLY ISL    N/A     79  59  50 S10         N/A  HX  80
NORTHERLY ISL    N/A     79  59  50 S10         N/A  HX  80
$$

LMZ740>746-262100-
SOUTHERN LAKE MICHIGAN

STATION/POSITION SKY/WX   TEMP    WIND        PRES    VSBY  WAVE
                          AIR SEA DIR/SP/G                  HT/PER
                          (F)     (DEG/KT/KT) (MB)    (MI)  (FT/S)
SOUTHERN BUOY              55 49  170/  8/ 10 1011.3          1/ 3
WILMETTE HARBOR            62 57  190/  6/  8   N/A           1
HARRISON CRIB              74     190/  9/ 11   N/A
BURNHAM HARBOR             80     190/  8/ 17   N/A
CALUMET HARBOR             78     200/ 12/ 17 1011.3F
BURNS HARBOR               78     210/ 15/ 21 1012.2S
MICHIGAN CITY              79     190/ 18/ 20   N/A
MICHIGAN CITY 6N           71 60  250/  8/  8   N/A           1
ST. JOSEPH                 69 61  200/  2/  2   N/A           1/ 2
$$

ILZ025>027-034>036-040-047-049-050-058-095>099-262100-
WEST-CENTRAL ILLINOIS

CITY           SKY/WX    TMP DP  RH WIND       PRES   REMARKS
QUINCY         FAIR      82  63  52 S7        29.88F HX  83
MACOMB*        FAIR      83  66  56 SW8       29.89F HX  85
PITTSFIELD*    FAIR      82  68  62 S8        29.90F HX  85
$$

ILZ028>032-037-038-041>044-048-051>054-059>061-262100-
CENTRAL ILLINOIS

CITY           SKY/WX    TMP DP  RH WIND       PRES   REMARKS
BLOOMINGTON    FAIR      83  67  58 SW13      29.92F HX  85
DECATUR        FAIR      81  65  58 SW12      29.92F HX  83
PEORIA         FAIR      83  64  52 S9        29.87F HX  84
SPRINGFIELD    FAIR      83  67  58 SW10      29.90F HX  85
TAYLORVILLE    NOT AVBL
$$

ILZ033-039-045-046-055>057-062-063-262100-
EAST-CENTRAL ILLINOIS

CITY           SKY/WX    TMP DP  RH WIND       PRES   REMARKS
CHAMPAIGN      FAIR      82  63  52 SW16      29.92F HX  83
MATTOON        FAIR      75  64  68 S10       29.94F
$$

ILZ079-100>102-262100-
SOUTHWEST ILLINOIS

CITY           SKY/WX    TMP DP  RH WIND       PRES   REMARKS
ALTON          PTSUNNY   75  66  73 S9        29.94R
BELLEVILLE     FAIR      74  69  84 VRB6      29.93R
CAHOKIA*       FAIR      76  66  71 S7        29.93R
SPARTA*        FAIR      67  64  91 S13G18    29.94F
$$

ILZ064>066-069>071-074>076-080>082-084>086-088>090-092>094-262100-
SOUTH-CENTRAL ILLINOIS

CITY           SKY/WX    TMP DP  RH WIND       PRES   REMARKS
CARBONDALE     FAIR      66  63  90 S10       29.94F THUNDER
MT. VERNON     FAIR      66  61  82 W3        29.94S
SALEM*         FAIR      71  65  81 E5        29.93F
$$

ILZ067-068-072-073-078-083-087-091-262100-
SOUTHEAST ILLINOIS

CITY           SKY/WX    TMP DP  RH WIND       PRES   REMARKS
LAWRENCEVILLE  FAIR      73  66  78 S10       29.96F
FLORA*         FAIR      71  66  83 SW5       29.94F
HARRISBURG*    TSTM      66  66  98 S15       29.99F
ROBINSON*      FAIR      74  67  79 S6        29.97F
$$

ABBREVIATIONS USED IN REMARKS
   TC - TEMPERATURE IN CELSIUS
  WCI - WIND CHILL INDEX
   HX - HEAT INDEX
  VSB - VISIBILITY
$$




USA.gov is the U.S. government's official web portal to all federal, state and local government web resources and services.